GEFSMW_con_probscp_198.txt.gz
Probability
34 40 46 49 49 47 45 43 37 25 15 9 6 5 3 1 0 0 1 2 3 5 5 4 4 2 1 0 0 0 0 0 0 0 0 0 0 0 0 0 0 0 0
39 45 50 52 53 52 50 49 42 30 19 12 7 5 3 1 0 1 2 3 4 6 6 5 4 3 1 1 0 0 0 0 0 0 0 0 0 0 0 0 0 0 0
47 52 56 57 58 56 53 52 45 34 25 17 11 7 4 2 1 1 3 3 3 6 7 7 6 4 3 2 1 1 0 0 0 0 0 0 0 0 0 0 0 0 0
52 56 60 62 61 57 52 49 44 37 30 25 19 12 7 3 1 1 2 2 3 5 7 8 6 4 2 2 2 1 0 0 0 0 0 0 0 0 0 0 0 0 0
56 59 63 65 64 58 53 47 42 38 34 31 25 17 10 5 3 2 2 3 4 4 5 6 4 2 1 1 1 1 0 0 0 0 0 0 0 0 0 0 0 0 0
58 62 65 66 65 61 55 48 41 38 37 34 30 21 13 9 7 5 4 4 5 4 3 3 2 1 0 0 0 0 0 0 0 0 0 0 0 0 0 0 0 0 0
59 63 67 68 66 64 58 49 42 39 37 36 32 25 17 13 11 8 5 4 4 4 3 3 1 0 0 0 0 0 0 0 0 0 0 0 0 0 0 0 0 0 0
56 61 66 68 67 64 58 50 43 40 38 36 31 26 21 18 14 9 6 4 4 4 3 2 1 0 0 0 0 0 0 0 0 0 0 0 0 0 0 0 0 0 0
50 56 62 64 63 61 57 50 44 40 38 36 31 26 24 21 17 11 6 4 3 3 2 1 0 0 0 0 0 0 0 1 1 1 0 0 0 0 0 0 0 0 0
47 51 57 58 57 56 55 52 48 43 39 36 31 26 23 21 18 13 9 5 3 1 1 0 0 0 1 1 1 1 2 2 2 2 1 0 0 0 0 0 0 0 0
49 53 55 54 53 54 54 53 51 47 41 36 31 26 23 21 18 14 12 8 3 1 0 1 1 1 2 2 2 3 3 3 3 3 2 1 1 0 0 0 0 0 0
55 60 61 55 53 54 53 53 53 50 44 39 34 30 26 22 17 14 12 10 6 3 2 2 2 3 3 4 4 4 4 3 3 3 3 3 2 1 0 0 0 0 0
59 62 62 55 51 52 50 50 51 50 47 44 40 35 30 24 18 14 11 10 8 6 4 3 3 3 3 4 4 4 3 3 3 3 3 3 3 1 1 0 0 0 0
56 56 54 50 49 48 46 46 48 48 46 45 41 36 30 25 21 16 11 9 8 7 5 3 3 2 3 4 4 3 3 3 3 3 3 3 3 3 2 1 0 0 0
51 50 49 48 49 48 46 46 47 45 42 41 38 34 30 26 23 18 11 8 7 6 5 3 3 3 3 3 3 3 3 3 3 3 3 3 3 3 2 1 0 0 0
48 49 50 50 50 49 46 45 44 41 38 37 34 30 27 26 23 17 11 8 6 4 4 4 4 4 4 3 3 3 3 3 3 3 3 3 3 2 1 0 0 0 0
48 50 50 47 44 43 42 40 38 34 33 31 27 23 22 21 19 14 10 8 6 4 4 5 6 6 5 4 3 2 3 3 3 3 3 3 2 2 2 1 0 0 0
45 46 45 40 37 36 35 33 30 27 25 22 18 17 16 15 13 12 10 8 7 7 6 6 6 6 6 4 2 2 2 3 3 3 3 3 3 3 3 2 1 0 1
39 41 41 37 34 32 30 28 25 22 18 14 12 12 13 12 11 10 9 9 9 8 7 6 6 6 6 4 2 1 2 3 3 3 3 3 3 3 3 3 2 2 2
39 40 39 36 32 28 25 23 20 18 16 13 12 13 13 12 10 9 9 9 9 8 7 6 6 6 5 3 2 1 2 3 3 3 3 3 3 3 2 3 3 3 2
42 40 37 33 29 25 20 17 15 15 15 14 14 14 14 13 10 9 9 8 8 7 7 6 6 5 4 3 2 1 2 2 2 2 2 2 2 1 1 1 2 2 1
43 39 33 27 23 20 17 14 13 14 14 14 13 13 13 11 10 9 8 7 6 6 6 6 6 4 3 2 2 1 1 1 1 1 1 1 1 0 0 0 1 1 0
40 35 28 21 17 14 13 12 11 11 11 11 10 10 10 9 7 6 5 4 4 4 5 6 4 2 1 1 1 0 0 0 0 0 0 0 0 0 0 0 0 0 0
32 28 21 16 12 9 9 9 8 8 8 8 8 7 7 6 5 4 3 3 3 3 4 4 3 1 0 0 0 0 0 0 0 0 0 0 0 0 0 0 0 0 0
25 21 16 12 9 7 7 7 7 6 6 6 6 6 6 5 4 3 3 3 3 3 3 3 2 1 0 0 0 0 0 0 0 0 0 0 0 0 0 0 0 0 0
22 20 15 11 8 7 7 7 7 6 6 6 6 6 5 4 4 3 3 3 3 3 3 3 2 1 0 0 0 0 0 0 0 0 0 0 0 0 0 0 0 0 0

GEFSMW_con_probscp_204.txt.gz
Probability
1 4 13 21 22 19 15 11 6 2 1 1 0 0 0 0 0 0 0 0 0 0 0 0 0 0 0 0 0 0 0 0 0 0 0 0 0 0 0 0 0 0 0
3 6 15 24 26 22 17 12 6 3 2 1 0 0 0 0 0 0 0 0 0 0 0 0 0 0 0 0 0 0 0 0 0 0 0 0 0 0 0 0 0 0 0
6 10 18 26 28 22 17 11 6 2 1 1 1 1 1 1 0 0 0 0 0 0 1 0 0 0 0 0 0 1 0 0 0 0 0 0 0 0 0 0 0 0 0
10 14 21 27 27 19 12 8 6 3 2 2 2 2 2 2 1 0 0 0 0 0 0 0 0 0 0 0 0 0 0 0 0 0 0 0 0 0 0 0 0 0 0
12 17 23 26 23 16 8 7 7 6 6 5 5 4 3 2 1 0 1 0 0 0 1 1 2 1 0 0 0 0 0 0 0 0 0 0 0 0 0 0 0 0 0
14 18 22 23 20 15 12 11 11 11 11 11 9 6 5 4 2 1 1 0 0 1 1 2 2 2 0 0 0 0 0 0 0 0 0 0 0 0 0 0 0 0 0
15 17 19 20 21 21 21 21 20 18 19 19 16 13 11 8 5 3 3 2 1 1 1 1 2 1 0 0 0 0 0 0 0 0 0 0 0 0 0 0 0 0 0
13 15 17 21 25 29 32 33 29 26 25 26 24 21 18 14 10 7 6 4 2 1 0 0 0 0 0 1 1 0 0 0 0 0 0 0 0 0 0 0 0 0 0
13 14 18 23 26 31 36 38 34 30 29 29 27 24 22 20 15 10 8 5 2 0 0 0 0 0 0 1 2 1 0 0 0 0 0 0 0 0 0 0 0 0 0
14 15 19 23 26 29 34 38 36 32 29 27 25 23 23 21 17 14 11 6 3 1 0 0 0 1 1 2 2 1 0 0 0 0 0 0 0 0 0 0 0 0 0
16 18 21 23 26 31 34 37 35 30 26 24 22 22 22 21 18 16 13 9 5 3 1 0 0 1 2 2 2 1 0 1 0 0 0 0 0 0 0 0 0 0 0
19 20 22 24 28 32 34 34 30 24 22 22 21 21 21 20 17 13 11 10 8 5 2 1 0 1 3 3 1 0 0 0 0 0 1 1 1 1 1 1 0 0 0
19 19 21 25 29 31 31 30 25 21 20 21 20 20 21 20 17 12 10 10 9 7 4 2 1 1 3 3 1 0 1 1 1 1 2 2 2 2 2 2 1 1 0
19 20 20 24 30 32 30 28 26 24 23 22 22 23 24 23 19 14 12 10 8 7 5 3 2 1 2 2 1 1 2 2 2 2 3 3 3 3 3 3 3 2 1
24 23 21 23 28 31 30 29 28 27 26 25 25 24 24 22 19 15 12 9 8 6 5 3 2 1 1 1 1 2 3 3 3 3 3 3 3 3 3 2 3 3 3
25 23 21 23 27 28 28 28 26 25 24 24 24 22 20 18 16 13 11 9 7 6 4 3 3 2 2 2 1 2 3 3 3 3 3 3 3 3 1 1 1 2 2
21 20 19 22 25 26 25 24 22 20 19 19 19 17 16 16 15 13 11 9 7 6 4 3 3 3 3 3 2 2 3 3 3 3 3 3 2 2 1 1 1 1 2
19 18 18 21 24 24 22 21 20 19 17 16 15 14 15 15 14 12 10 8 7 6 5 4 3 3 3 3 2 2 3 3 3 3 2 2 1 1 2 2 2 2 2
22 20 20 21 22 21 20 20 20 20 19 17 15 13 14 14 13 11 8 7 6 5 4 3 3 2 2 2 1 2 3 3 3 2 2 1 1 1 1 3 3 3 3
26 24 23 22 22 21 20 20 19 19 17 16 14 13 13 13 12 9 7 6 5 4 3 2 1 1 1 1 0 1 4 4 3 3 2 1 1 1 1 2 2 2 2
27 26 24 22 22 22 21 19 17 14 13 12 12 12 12 11 9 8 7 6 5 4 3 2 1 1 1 1 1 2 3 4 3 3 2 1 1 0 0 1 1 1 1
28 25 23 23 22 22 21 18 14 11 9 9 11 11 10 9 8 6 6 6 5 4 3 2 2 2 2 2 2 2 2 2 2 2 1 1 0 0 0 0 0 0 0
27 24 23 23 21 19 18 15 11 9 9 9 10 10 9 8 7 6 5 4 4 3 3 3 3 3 3 1 1 1 0 1 1 1 0 0 0 0 0 0 0 0 0
22 22 22 22 19 15 13 11 9 8 8 9 9 9 9 8 7 6 4 3 3 3 3 3 3 3 3 1 0 0 0 0 0 0 0 0 0 0 0 0 0 0 0
18 19 20 18 14 9 7 6 6 5 5 6 6 7 7 7 6 5 4 3 3 3 3 3 3 3 3 2 0 0 0 0 0 0 0 0 0 0 0 0 0 0 0
17 17 16 14 10 6 4 4 4 4 4 4 4 5 6 6 6 5 4 3 3 3 3 3 3 3 3 1 0 0 0 0 0 0 0 0 0 0 0 0 0 0 0

GEFSMW_con_probscp_210.txt.gz
Probability
3 3 4 6 11 17 19 19 18 16 13 11 9 7 5 3 3 3 2 1 0 0 0 1 1 1 0 0 1 1 1 1 2 1 0 0 0 0 0 0 0 0 0
5 5 5 7 11 16 19 20 19 17 14 11 9 8 7 5 3 3 2 1 0 0 0 0 0 0 0 0 1 1 1 1 2 2 1 0 0 0 0 0 0 0 0
7 8 11 14 16 19 21 22 20 18 16 13 11 11 11 7 4 4 4 2 1 1 2 2 1 1 1 2 2 2 2 2 3 4 3 2 2 2 1 1 1 1 1
7 10 16 21 21 20 22 23 22 20 19 15 13 14 13 9 5 5 6 5 4 5 5 5 4 3 3 4 4 4 4 6 7 7 5 3 3 3 3 3 3 3 3
6 10 17 20 19 18 19 21 22 24 22 18 15 15 14 9 6 6 7 8 9 9 8 7 6 5 4 5 5 4 5 8 8 6 4 3 3 3 3 4 5 4 3
7 11 15 17 17 17 17 18 22 25 23 19 18 18 15 12 10 9 9 11 12 12 10 8 6 5 5 5 6 5 5 6 6 5 4 2 2 2 2 2 3 2 1
8 12 16 17 19 20 18 18 23 24 22 20 19 18 16 14 13 12 11 11 12 12 11 9 7 7 7 7 7 7 7 7 7 6 5 3 2 3 2 1 0 0 0
8 13 17 18 19 22 21 21 25 26 24 22 20 17 15 14 14 14 13 12 12 12 11 10 9 9 9 9 10 9 8 9 9 7 5 4 2 2 2 1 1 1 0
9 13 17 18 21 23 23 23 26 28 27 24 23 19 16 17 19 19 17 15 15 14 12 11 11 12 12 11 11 11 10 11 10 7 5 5 3 2 2 3 4 3 3
11 14 18 21 23 25 25 24 26 29 28 27 26 23 20 21 23 21 20 19 19 18 15 14 15 15 13 13 13 13 13 14 12 8 6 6 6 5 5 6 7 7 7
14 18 22 25 27 27 27 27 29 31 32 31 27 23 22 23 24 23 21 20 22 23 22 21 21 18 15 14 13 12 13 14 12 9 6 6 6 6 8 9 9 10 9
18 22 27 31 33 34 35 33 33 36 35 32 27 24 24 26 26 25 23 22 24 26 27 26 24 20 16 15 13 11 10 10 10 9 7 5 6 9 11 11 10 9 8
25 28 35 39 40 41 43 41 38 37 35 32 30 28 28 29 29 27 25 26 26 27 27 25 22 18 15 13 13 12 12 10 8 8 9 7 8 12 14 13 11 9 7
32 36 42 43 42 43 47 47 43 37 34 33 33 32 30 29 29 27 26 26 26 26 26 23 18 14 12 11 12 14 13 12 10 10 11 10 10 12 13 12 12 10 8
33 38 44 44 43 45 48 50 47 41 36 34 33 30 28 27 25 25 24 23 23 24 24 21 17 14 11 9 9 11 12 11 11 12 12 12 10 9 9 8 9 9 8
30 34 40 44 45 46 48 49 47 43 39 35 31 28 26 24 23 23 22 21 20 21 20 18 16 14 10 7 6 6 7 9 11 12 12 11 9 6 5 4 5 5 5
30 33 38 42 44 45 47 48 46 42 39 34 30 27 25 23 23 23 21 19 19 18 16 15 15 13 9 6 3 3 5 8 10 11 11 9 6 5 4 3 2 1 2
35 38 41 42 42 43 46 45 41 38 34 31 29 27 24 22 23 22 20 18 17 15 13 13 12 11 9 6 2 3 6 8 9 9 9 8 5 3 3 2 1 0 0
41 44 46 45 43 43 44 41 37 34 31 29 28 25 22 21 21 20 17 15 14 13 11 11 10 10 9 6 3 3 7 8 8 7 7 6 4 2 1 1 1 1 0
49 51 52 50 47 44 42 39 35 33 29 27 26 23 20 19 18 17 15 13 11 11 10 10 10 10 9 6 3 3 7 8 6 6 6 5 3 1 0 2 3 2 1
55 55 55 53 49 44 42 39 35 31 27 24 22 20 17 16 16 15 13 12 10 10 10 10 9 9 8 6 3 3 5 6 6 6 5 4 2 1 0 1 3 2 1
57 56 53 50 45 41 40 37 33 28 23 20 18 16 13 12 13 13 12 11 10 10 10 9 9 8 7 6 3 2 2 4 6 6 5 3 1 0 0 0 1 1 0
57 55 51 46 41 38 37 35 31 26 21 17 15 12 11 10 11 12 12 11 10 10 9 9 7 7 6 6 3 1 0 2 4 5 4 2 0 0 0 0 0 0 0
56 53 50 46 40 36 33 31 28 24 18 14 12 10 9 9 10 11 11 10 9 9 8 7 7 6 6 5 4 2 1 1 2 2 1 0 0 0 0 0 0 0 0
53 52 50 45 40 35 30 28 25 20 15 12 10 9 8 8 8 8 8 8 7 7 6 6 6 5 4 4 3 3 2 2 1 0 0 0 0 0 0 0 0 0 0
52 52 48 43 39 33 29 25 22 18 13 10 8 7 7 7 7 6 6 5 5 5 4 4 4 4 4 3 3 2 2 2 1 0 0 0 0 0 0 0 0 0 0

GEFSMW_con_probscp_216.txt.gz
Probability
41 41 40 41 46 50 47 39 31 27 24 20 15 12 11 10 11 14 18 18 15 12 11 9 10 10 6 3 5 7 6 4 3 3 1 1 2 1 2 4 3 1 1
48 48 45 45 51 56 51 42 36 31 27 23 18 14 12 11 13 19 24 24 22 19 16 14 12 10 7 6 7 8 7 4 4 4 2 1 1 1 1 3 3 2 2
55 54 52 51 56 59 55 47 43 39 32 26 21 18 18 17 19 26 30 29 27 25 22 19 16 13 9 7 8 10 9 6 5 4 3 1 1 0 0 1 1 2 4
55 57 55 55 57 58 56 53 52 48 39 31 25 22 22 22 25 30 32 30 27 25 25 24 22 18 10 6 7 10 11 9 6 3 2 1 1 1 0 0 0 1 3
51 54 57 57 56 56 57 57 58 57 49 39 31 26 23 23 26 30 31 30 28 26 27 29 28 22 13 8 6 9 12 10 6 3 2 2 2 1 0 0 0 1 2
44 51 57 62 61 58 58 58 59 60 54 45 37 31 26 24 26 29 32 33 32 30 29 29 28 24 19 13 9 9 10 10 7 4 3 3 3 2 0 0 0 1 2
38 46 58 65 67 63 60 59 60 60 56 51 44 38 34 31 29 31 34 36 34 32 28 27 27 26 23 18 14 13 11 10 8 6 5 4 3 2 1 0 0 0 1
32 42 54 61 62 60 58 60 62 62 60 56 52 47 43 38 35 34 36 37 35 31 29 29 29 28 24 20 17 16 15 13 10 7 6 5 4 3 2 1 1 1 0
28 37 47 51 51 53 56 59 63 65 64 61 58 54 49 42 38 36 34 35 34 31 29 30 30 29 26 22 19 19 18 15 11 9 8 6 4 3 3 3 4 4 2
25 32 43 49 51 55 58 60 63 66 65 62 58 53 49 44 39 36 35 34 33 31 28 26 27 28 26 24 22 21 19 16 13 11 9 6 4 3 3 4 7 7 5
25 32 42 51 57 61 63 62 62 63 63 60 56 50 47 44 41 38 37 35 34 31 26 24 25 25 23 22 22 21 20 18 15 13 10 7 5 4 4 4 6 8 8
29 33 42 51 58 63 65 63 60 60 60 58 54 50 48 45 43 41 38 36 33 29 24 23 23 22 20 20 20 19 19 18 16 14 12 10 8 8 7 6 8 9 9
31 36 43 51 59 63 64 62 58 57 57 55 51 50 49 46 44 42 39 33 30 27 23 22 21 19 18 18 18 18 17 15 14 14 14 13 12 11 11 11 11 11 11
36 41 48 56 62 64 63 61 59 56 55 52 50 49 48 44 42 40 35 30 27 26 24 22 20 18 15 15 17 17 15 13 11 12 13 13 12 12 12 13 14 13 13
42 48 55 58 60 60 60 59 58 57 56 54 51 48 45 40 37 34 30 28 27 26 24 22 21 18 15 14 15 16 13 11 11 10 11 11 10 9 9 11 12 13 13
44 51 57 59 58 58 58 59 58 59 59 55 49 45 40 36 32 30 29 28 28 26 23 21 20 19 15 13 12 13 12 11 10 10 10 9 8 6 6 6 7 9 9
45 51 58 59 58 59 61 60 60 61 60 53 45 39 36 33 30 29 29 28 27 23 20 18 18 17 14 11 9 10 11 10 10 10 9 9 8 6 5 4 3 3 4
51 54 59 60 60 62 63 62 61 61 56 48 40 35 34 33 30 28 28 26 23 19 17 16 15 14 12 10 8 8 9 10 10 10 9 9 8 6 4 3 2 2 2
57 58 59 61 65 67 65 62 60 58 52 43 37 33 32 31 29 26 25 23 20 17 15 13 12 12 10 8 6 7 9 10 10 9 9 9 7 5 3 2 2 2 1
62 61 62 66 70 69 67 63 58 53 47 40 35 32 31 29 26 22 20 19 17 14 13 11 10 10 9 6 4 5 8 10 10 9 8 7 5 3 1 2 2 1 0
65 65 67 70 70 68 65 61 55 50 45 40 35 32 30 26 21 18 16 16 15 13 11 10 10 10 9 6 3 3 6 9 9 8 7 5 4 1 1 1 1 1 0
68 68 69 70 68 65 63 60 55 50 47 41 36 32 28 23 18 14 13 13 12 10 9 9 9 9 8 6 3 2 3 6 7 7 5 4 2 1 0 1 2 1 1
66 66 66 67 67 66 64 61 56 51 47 42 36 31 27 23 18 13 11 11 9 8 7 8 9 9 7 5 3 1 1 2 4 4 3 1 1 0 0 1 1 1 0
61 61 62 63 66 67 66 61 55 49 46 42 35 30 26 22 17 12 10 9 7 7 7 7 8 7 6 4 3 2 1 2 2 2 1 0 0 0 0 0 0 0 0
57 58 58 60 63 64 64 60 53 49 46 40 33 27 22 17 12 8 6 6 6 6 6 7 7 6 5 4 3 3 3 3 2 1 0 0 0 0 0 0 0 0 0
57 58 58 58 60 61 62 60 54 49 46 39 31 23 18 13 9 5 4 4 4 4 5 6 7 6 5 4 3 3 3 3 2 1 0 0 0 0 0 0 0 0 0

GEFSMW_con_probscp_222.txt.gz
Probability
29 32 33 32 25 20 19 20 19 12 4 0 0 0 0 0 0 1 2 3 3 3 2 2 1 0 0 0 0 0 0 0 0 0 0 0 0 0 0 0 0 0 0
32 34 36 35 30 25 24 24 20 13 6 2 1 1 1 0 0 1 1 2 3 3 3 3 2 1 1 1 0 0 0 0 0 0 0 0 0 0 0 0 0 0 0
34 37 40 40 34 29 29 28 22 15 8 5 3 2 2 1 1 1 1 1 3 4 3 3 3 3 2 2 1 0 0 0 0 0 0 0 0 0 0 0 0 0 0
35 39 43 41 36 32 31 29 25 19 12 7 5 3 3 3 3 2 1 1 3 4 4 3 3 3 3 3 2 1 0 0 0 0 0 0 0 0 0 0 0 0 0
33 38 42 39 35 32 30 28 27 23 17 11 7 4 4 4 4 3 2 2 2 3 3 3 3 3 3 3 3 2 1 0 0 0 0 0 0 0 0 0 0 0 0
28 33 38 37 34 32 31 31 30 26 21 17 12 7 6 5 5 5 6 4 1 1 3 3 3 4 4 4 4 3 1 1 0 0 0 0 0 0 0 0 0 0 0
21 27 34 36 35 35 35 35 34 30 25 22 19 13 9 7 7 7 8 6 2 1 3 3 4 5 5 6 5 4 3 3 1 1 0 0 0 0 0 0 0 0 0
19 25 32 34 34 36 37 36 34 31 28 26 25 21 16 12 9 7 7 6 3 3 3 3 4 5 6 6 6 6 7 5 3 2 1 0 0 0 0 0 0 0 0
19 22 26 27 29 33 35 36 34 31 28 28 27 25 21 16 10 6 5 5 5 4 4 4 4 5 5 5 6 8 8 6 3 2 1 0 0 0 0 0 0 0 0
19 20 22 23 25 28 33 37 37 32 28 28 26 24 21 16 10 6 5 5 6 5 5 5 6 6 6 6 8 8 7 5 3 2 1 0 0 0 0 0 0 0 0
20 20 23 27 28 28 32 36 37 33 28 27 26 24 20 17 14 10 7 6 6 5 5 5 6 6 7 9 9 8 6 5 3 2 1 0 0 0 0 0 0 0 0
22 23 28 33 34 32 33 34 35 32 28 26 27 26 23 20 17 13 10 7 6 5 5 5 5 5 7 10 11 8 6 5 2 1 0 0 0 0 0 0 0 0 1
24 26 28 32 34 35 35 36 35 33 30 28 28 28 26 23 18 13 10 8 7 6 6 6 6 6 7 10 11 9 6 4 1 0 0 0 0 0 0 0 1 2 2
27 27 27 30 34 36 38 39 38 34 32 31 30 29 28 24 18 14 12 10 9 8 7 8 8 7 7 8 9 9 6 4 2 1 1 1 1 1 0 1 2 3 3
34 31 30 33 35 36 38 41 39 33 31 31 30 28 26 23 19 16 14 14 12 9 8 8 8 8 7 8 9 9 6 5 4 3 2 2 2 2 1 1 3 4 4
39 37 36 36 38 38 38 39 35 30 28 29 28 25 23 22 22 20 18 15 13 10 9 9 9 9 8 8 9 9 8 6 5 4 4 3 3 3 3 3 3 3 3
40 39 38 38 38 38 37 35 32 28 27 27 25 23 22 22 23 22 19 15 12 12 11 10 10 10 9 9 8 8 8 7 7 6 5 3 2 3 3 3 3 3 3
39 38 38 38 37 37 35 33 31 28 26 25 24 23 23 22 22 22 19 14 12 12 11 10 10 10 9 8 7 6 7 7 7 6 6 5 4 3 3 3 2 2 1
40 38 37 37 37 36 35 32 29 27 25 25 25 24 23 22 21 20 16 11 10 10 9 9 9 9 8 7 6 6 7 7 6 5 5 6 5 4 2 1 1 1 0
42 42 41 39 37 36 35 32 28 25 25 26 25 24 22 20 19 17 12 8 7 7 7 7 8 7 7 7 6 6 7 7 5 4 4 4 4 3 1 0 0 0 1
50 50 48 45 41 38 36 33 27 24 24 24 24 22 20 18 15 13 9 6 6 6 6 6 5 6 6 7 6 5 5 6 6 5 4 4 3 2 1 0 0 0 1
56 56 53 48 44 41 37 31 25 22 23 22 21 20 17 14 11 9 7 6 5 6 6 6 4 4 6 6 4 3 3 5 6 6 6 5 4 3 2 1 0 0 1
56 56 52 47 43 39 33 27 22 22 23 22 20 18 14 9 6 6 6 6 6 6 6 6 4 4 5 4 3 1 1 2 4 5 5 4 3 2 2 1 0 0 0
49 50 48 44 40 35 28 24 23 24 24 23 19 15 11 6 4 4 4 5 6 7 7 6 4 3 4 3 3 2 1 1 1 2 2 1 1 1 1 0 0 0 0
41 42 44 43 39 35 28 24 24 25 24 22 18 13 9 5 3 2 2 3 5 7 7 5 4 4 3 3 3 2 2 1 0 0 0 0 0 0 0 0 0 0 0
35 38 42 43 39 35 29 25 24 24 24 21 17 12 8 5 3 1 1 2 4 5 5 4 4 4 4 3 3 2 1 1 0 0 0 0 0 0 0 0 0 0 0

GEFSMW_con_probscp_228.txt.gz
Probability
9 12 11 8 6 4 1 0 0 0 0 0 0 0 0 0 0 0 0 1 3 4 4 3 1 0 0 0 0 0 0 0 0 0 0 0 0 0 0 0 0 0 0
11 12 12 10 9 6 3 1 1 0 0 0 0 0 0 0 0 0 0 0 2 3 4 3 2 1 0 0 0 0 0 0 0 0 0 0 0 0 0 0 0 0 0
12 13 14 14 12 8 4 3 2 1 1 1 0 0 0 0 0 0 0 0 1 2 3 3 3 2 1 1 0 0 0 0 0 0 0 0 0 0 0 0 0 0 0
11 13 15 15 12 7 4 4 4 2 1 2 1 0 0 0 0 0 0 0 0 2 3 3 3 3 3 2 1 1 0 0 0 0 0 0 0 0 0 0 0 0 0
11 12 13 13 10 6 4 4 4 2 1 1 2 1 1 1 0 0 0 1 1 2 3 4 3 3 3 3 3 2 1 0 0 0 0 0 0 0 0 0 0 0 0
11 11 11 10 8 5 4 4 3 2 1 2 3 3 4 3 1 0 1 2 3 4 5 5 4 4 3 3 3 3 2 1 0 0 0 0 0 0 0 0 0 0 0
10 10 9 8 7 5 3 2 2 2 3 5 7 7 5 4 2 1 2 3 4 5 6 5 5 4 4 3 3 3 3 2 1 0 0 1 1 0 0 0 0 0 0
7 8 8 7 8 6 3 2 3 3 4 6 8 7 5 5 4 4 5 6 6 6 5 4 4 4 3 3 3 3 3 2 1 0 1 2 2 1 0 0 0 0 0
5 6 8 9 8 7 6 6 5 5 5 5 5 5 5 6 7 7 7 7 7 5 3 3 3 3 3 3 3 3 3 2 1 0 1 2 2 2 1 0 0 0 0
5 6 8 10 9 9 10 9 8 8 6 4 4 4 5 6 7 8 8 7 5 3 2 3 3 3 3 3 3 3 3 3 1 0 1 2 1 1 1 0 0 0 0
4 5 8 10 11 12 12 10 9 8 7 6 5 4 5 6 8 9 8 6 3 1 2 3 3 3 3 3 3 3 3 3 2 1 1 1 1 0 0 0 0 0 0
5 6 8 11 13 15 15 13 10 9 10 10 7 6 7 9 10 9 8 6 3 2 3 4 4 4 4 3 4 4 4 4 3 2 1 1 1 1 1 0 0 0 0
7 8 10 13 16 19 20 19 16 14 14 13 10 8 9 11 11 9 7 5 4 3 3 4 5 5 4 4 5 5 6 5 4 2 1 1 2 2 2 1 0 0 0
9 10 11 14 17 22 25 23 21 19 18 16 13 11 11 12 12 10 7 5 4 3 3 3 4 4 4 3 4 5 5 5 3 1 0 1 2 3 3 2 1 1 0
13 13 14 15 19 24 27 24 22 22 20 19 17 15 13 12 11 8 6 4 5 5 4 4 3 3 3 3 4 4 5 5 3 2 2 2 3 3 3 2 2 2 1
16 17 18 19 21 25 26 23 23 24 24 22 20 17 16 15 12 8 5 5 7 7 7 6 5 4 4 4 4 5 7 7 6 5 5 5 5 4 3 2 1 2 2
19 21 22 21 22 24 25 24 25 26 26 25 22 19 19 18 14 10 7 6 8 10 10 9 8 7 6 6 5 5 7 8 7 6 6 6 6 6 5 3 2 1 2
21 22 22 20 19 22 25 27 26 25 25 25 22 20 20 19 17 13 10 9 9 11 12 11 10 9 9 7 5 4 6 8 7 7 6 6 6 6 6 5 4 3 3
20 21 22 21 19 21 24 27 27 25 23 21 19 18 19 19 18 15 12 10 10 10 11 10 9 9 8 6 3 3 5 7 8 7 6 6 6 6 5 6 6 5 5
23 24 25 24 22 19 20 23 25 25 22 17 15 15 16 17 17 14 12 10 9 9 8 8 7 7 6 4 2 2 4 6 6 6 6 6 6 5 4 5 6 6 5
32 32 30 27 23 17 15 19 23 23 20 16 14 15 15 15 14 13 11 9 8 7 7 6 6 6 5 3 1 2 3 4 4 5 6 6 4 3 2 3 5 5 4
40 39 35 29 22 17 15 18 21 21 19 17 16 15 15 14 13 12 10 7 5 5 6 6 5 4 3 1 1 1 1 1 2 4 4 5 3 1 0 1 3 3 2
42 41 35 28 23 19 19 20 20 20 19 17 15 14 14 14 13 11 8 4 3 3 4 4 3 2 1 1 2 1 1 0 1 2 3 3 2 1 0 0 1 1 0
40 39 34 27 22 19 19 19 17 16 16 14 14 13 13 13 12 9 6 3 2 3 3 3 2 1 1 2 2 2 2 1 1 1 1 1 1 0 0 0 0 0 0
36 35 31 24 18 16 15 15 13 13 14 14 14 14 14 13 10 7 4 3 2 3 3 2 2 1 1 1 1 1 2 2 1 1 1 1 0 0 0 0 0 0 0
31 30 27 21 16 14 12 11 11 12 14 15 15 15 14 13 10 6 3 2 2 2 2 1 1 1 0 0 0 0 1 1 1 2 2 2 1 0 0 0 0 0 0

GEFSMW_con_probscp_234.txt.gz
Probability
8 9 9 8 9 8 8 9 10 9 7 6 5 4 3 2 2 3 4 3 3 4 5 3 2 2 1 0 0 0 0 0 0 1 0 0 0 0 0 0 1 0 0
9 10 10 10 10 10 8 8 9 9 7 5 4 3 2 1 1 2 3 3 2 3 4 3 3 4 3 2 1 1 2 1 2 2 1 0 0 0 0 0 1 1 1
9 10 12 12 11 10 8 7 9 10 9 6 4 2 2 1 1 2 3 2 2 3 4 4 5 7 7 5 3 4 5 4 4 4 3 1 0 0 0 0 1 2 2
9 10 12 13 11 9 7 8 11 13 13 11 9 6 3 1 2 3 4 3 3 5 6 6 7 9 9 7 5 5 6 5 5 5 4 3 2 1 0 0 0 1 2
8 9 11 12 12 8 6 10 15 18 18 16 14 11 6 4 4 4 6 6 6 7 8 7 6 7 7 7 6 5 5 5 5 5 6 6 4 1 0 0 1 2 2
7 7 9 12 13 8 5 10 18 23 22 19 16 14 12 10 9 9 9 9 8 9 9 8 6 5 5 6 6 6 6 7 8 8 8 9 7 3 2 3 3 3 4
6 6 7 11 14 11 8 11 19 25 24 20 17 16 16 16 15 12 11 10 10 9 10 9 7 5 5 6 7 8 9 10 11 10 10 11 8 6 6 7 7 6 7
6 6 8 11 12 11 11 14 19 23 23 20 17 17 16 15 15 14 11 11 10 10 10 9 7 6 5 6 9 11 11 12 12 12 12 11 9 8 8 9 9 8 7
8 9 10 10 11 11 13 17 19 20 20 19 17 18 17 14 14 15 13 12 12 11 10 9 7 6 6 7 9 11 11 12 12 13 13 11 10 9 8 8 9 8 7
12 13 13 13 14 15 16 19 20 20 20 20 19 19 18 17 17 18 15 14 14 13 11 8 7 6 6 7 8 8 8 8 10 11 11 9 9 9 8 6 6 6 5
15 16 17 18 19 19 20 21 21 21 23 24 22 20 18 19 21 20 17 15 14 11 9 6 5 5 5 6 6 4 3 4 5 6 6 6 7 9 8 5 4 4 3
18 20 22 22 22 21 21 21 21 23 25 27 25 22 20 20 21 20 17 15 11 8 6 5 4 3 3 4 4 3 2 2 3 3 4 4 7 8 7 4 3 3 3
24 26 28 27 25 23 22 22 23 25 27 28 27 24 21 19 18 16 14 12 9 6 6 6 5 3 2 3 3 3 2 2 3 5 6 7 7 8 7 6 4 4 4
32 34 35 33 29 26 25 24 23 24 26 27 27 24 19 17 15 14 13 11 10 8 7 6 4 2 2 3 3 3 3 3 4 6 8 9 9 9 9 8 6 6 6
38 39 39 36 33 32 31 26 22 22 23 24 24 22 19 18 16 14 13 13 13 12 10 8 6 5 4 5 5 5 5 5 6 7 9 9 8 8 8 8 7 6 6
40 39 38 37 37 36 36 32 27 27 26 24 22 22 21 22 20 17 16 16 16 15 12 10 9 8 8 8 6 6 7 8 8 8 9 9 7 6 7 7 6 6 6
39 39 38 38 39 38 38 38 36 35 32 29 26 25 25 24 23 22 22 21 19 17 14 13 11 10 11 9 5 5 8 10 10 10 10 9 8 7 6 6 5 5 5
38 39 40 41 41 39 40 42 41 38 35 32 29 28 26 25 24 24 24 23 21 19 16 14 13 12 11 9 4 4 9 12 12 11 10 10 9 7 6 6 6 6 6
40 41 44 46 45 43 42 43 43 39 35 32 30 28 25 23 23 23 23 23 22 21 17 15 14 14 12 9 4 4 9 12 11 10 9 9 8 5 4 5 7 7 7
43 43 48 53 53 48 45 44 45 42 37 33 30 27 24 22 21 23 24 23 22 21 18 15 15 15 13 8 4 4 8 11 9 7 6 6 4 3 3 4 6 7 6
47 48 52 58 58 52 46 45 47 44 39 35 32 27 23 21 21 24 24 23 21 20 19 16 16 16 12 8 4 3 6 7 6 5 4 3 3 1 1 2 4 4 4
49 51 54 58 58 52 47 46 47 44 39 36 34 30 25 22 23 24 23 21 19 19 17 16 15 14 11 6 3 2 2 3 4 4 3 3 2 1 0 1 1 1 2
50 51 53 56 56 52 48 48 47 44 39 37 36 34 29 26 25 24 22 21 18 16 14 12 11 11 9 4 1 0 0 1 2 2 2 1 1 0 0 0 0 0 1
51 51 52 53 54 52 49 48 46 43 39 37 37 35 30 28 26 24 21 19 17 15 13 10 9 9 7 4 2 1 1 1 1 1 1 0 1 1 1 1 1 1 1
52 50 50 52 53 51 49 47 42 38 36 35 34 31 27 25 24 22 19 16 14 13 11 9 7 7 6 4 3 2 2 2 2 1 0 0 1 2 2 3 3 2 1
50 47 47 51 52 52 50 45 39 35 33 33 32 28 24 23 21 19 16 13 11 9 8 7 6 6 6 3 1 2 3 3 2 1 0 0 1 3 3 4 4 3 1